Location: Newark
(17.9939°S, 31.0481°E)
Time: 18:07:45
(UTC+00:00)

Vanguard 2 - Visible Passes

Search period start: 12 November 2019 00:00
Search period end: 22 November 2019 00:00
Orbit: 554 x 2937 km, 32.9° (Epoch: 12 November)

Date Brightness Start Highest point End Pass type
(mag) Time Alt. Az. Time Alt. Az. Time Alt. Az.
12 Nov 10.3 01:46:39 10° WSW 02:04:47 73° SSE 02:18:03 10° ENE visible
12 Nov 9.3 17:19:00 10° NW 17:27:04 52° NE 17:40:22 10° ESE visible
12 Nov 9.9 19:27:03 10° WNW 19:38:03 68° SSW 19:55:01 10° ESE visible
12 Nov 10.7 21:38:31 10° WSW 21:52:38 48° S 22:09:48 10° ESE visible
12 Nov 10.8 23:51:39 10° WSW 00:08:44 53° SSE 00:24:31 10° E visible
13 Nov 10.2 02:05:02 10° WSW 02:23:13 86° SSE 02:36:15 10° ENE visible
13 Nov 9.1 17:36:33 10° NW 17:44:52 71° NE 17:59:02 10° ESE visible
13 Nov 10.1 19:45:28 10° W 19:56:41 58° SSW 20:13:31 10° ESE visible
13 Nov 10.8 21:57:17 10° WSW 22:11:46 47° S 22:28:47 10° ESE visible
14 Nov 10.6 00:10:08 10° WSW 00:27:39 60° SSE 00:43:20 10° E visible
14 Nov 10.1 02:23:28 10° WSW 02:41:26 79° NW 02:54:12 10° NE visible
14 Nov 9.2 17:54:20 10° WNW 18:02:54 90° SSW 18:17:32 10° ESE visible
14 Nov 10.4 20:04:01 10° W 20:15:29 51° SSW 20:32:09 10° ESE visible
14 Nov 10.8 22:15:59 10° WSW 22:30:52 48° S 22:47:52 10° ESE visible
15 Nov 10.5 00:28:32 10° WSW 00:46:24 68° SSE 01:01:58 10° ENE visible
15 Nov 10.1 02:42:00 10° WSW 02:59:27 64° NW 03:11:55 10° NE visible
15 Nov 9.5 18:12:23 10° WNW 18:21:09 73° SSW 18:35:57 10° ESE visible
15 Nov 10.5 20:22:39 10° WSW 20:34:24 47° S 20:50:57 10° ESE visible
15 Nov 10.7 22:34:33 10° WSW 22:49:55 51° SSE 23:06:58 10° E visible
16 Nov 10.3 00:46:50 10° WSW 01:04:57 79° SSE 01:20:23 10° ENE visible
16 Nov 8.8 16:22:43 10° NW 16:29:13 55° NE 16:40:11 10° ESE visible
16 Nov 9.8 18:30:38 10° W 18:39:35 59° SSW 18:54:23 10° ESE visible
16 Nov 10.6 20:41:18 10° WSW 20:53:25 45° S 21:09:57 10° ESE visible
16 Nov 10.6 22:52:59 10° WSW 23:08:52 56° SSE 23:26:01 10° E visible
17 Nov 10.2 01:05:09 10° WSW 01:23:19 88° NNW 01:38:34 10° ENE visible
17 Nov 8.7 16:40:20 10° NW 16:47:02 78° NNE 16:58:44 10° ESE visible
17 Nov 10.1 18:49:03 10° W 18:58:13 51° SSW 19:12:55 10° ESE visible
17 Nov 10.7 20:59:54 10° WSW 21:12:26 45° S 21:29:07 10° ESE visible
17 Nov 10.5 23:11:18 10° WSW 23:27:39 63° SSE 23:44:52 10° E visible
18 Nov 10.2 01:23:31 10° WSW 01:41:32 74° NW 01:56:28 10° NE visible
18 Nov 8.9 16:58:14 10° WNW 17:05:06 79° SSW 17:17:08 10° ESE visible
18 Nov 10.3 19:07:35 10° WSW 19:16:59 45° S 19:31:37 10° ESE visible
18 Nov 10.7 21:18:24 10° WSW 21:31:25 47° S 21:48:22 10° E visible
18 Nov 10.4 23:29:32 10° WSW 23:46:16 72° SSE 00:03:33 10° ENE visible
19 Nov 10.2 01:42:04 10° WSW 01:59:35 60° NW 02:14:06 10° NE visible
19 Nov 9.3 17:16:20 10° WNW 17:23:23 61° SSW 17:35:28 10° ESE visible
19 Nov 10.4 19:26:09 10° WSW 19:35:51 42° S 19:50:32 10° ESE visible
19 Nov 10.6 21:36:46 10° WSW 21:50:18 51° SSE 22:07:35 10° E visible
19 Nov 10.2 23:47:44 10° WSW 00:04:45 84° SSE 00:21:57 10° ENE visible
20 Nov 10.4 02:00:52 10° WSW 02:17:31 47° NW 02:31:26 10° NNE visible
20 Nov 9.7 17:34:39 10° W 17:41:50 49° SSW 17:53:51 10° ESE visible
20 Nov 10.5 19:44:40 10° WSW 19:54:44 41° S 20:09:39 10° ESE visible
20 Nov 10.5 21:55:01 10° WSW 22:09:04 57° SSE 22:26:42 10° E visible
21 Nov 10.1 00:05:58 10° WSW 00:23:04 83° NNW 00:40:05 10° NE visible
21 Nov 10.6 02:20:04 10° W 02:35:26 36° NW 02:48:26 10° NNE visible
21 Nov 10.0 17:53:06 10° W 18:00:27 42° S 18:12:22 10° ESE visible
21 Nov 10.5 20:03:06 10° WSW 20:13:36 42° S 20:28:56 10° ESE visible
21 Nov 10.3 22:13:10 10° WSW 22:27:41 65° SSE 22:45:38 10° ENE visible
